Weather History for Tucson, AZ

Change the Weather History Date:

Thursday, September 5, 2013

  Actual Average Record
Temperature  
Mean Temperature 89 °F 84 °F  
Max Temperature 104 °F 97 °F 107 °F (1945)
Min Temperature 74 °F 72 °F 53 °F (1921)
Degree Days  
Heating Degree Days 0 0  
Month to date heating degree days 0 0  
Since 1 July heating degree days 0 0  
Cooling Degree Days 24 19  
Month to date cooling degree days 118 98  
Year to date cooling degree days 2992 2508  
Growing Degree Days 40 (Base 50)    
Moisture  
Dew Point 49 °F    
Average Humidity 32    
Maximum Humidity 50    
Minimum Humidity 13    
Precipitation  
Precipitation 0.00 in 0.06 in 1.06 in (1909)
Month to date precipitation 0.01 0.29  
Year to date precipitation 4.86 8.20  
Snow  
Snow 0.00 in - - ()
Month to date snowfall 0.0  
Snow Depth 0.00 in    
Sea Level Pressure  
Sea Level Pressure 29.82 in    
Wind  
Wind Speed 9 mph (SE)    
Max Wind Speed 24 mph    
Max Gust Speed 31 mph    
Visibility 10 miles    
Events      
T = Trace of Precipitation, MM = Missing Value Source: NWS Daily Summary

Daily Weather History Graph

Daily Weather History Graph

Search for Another Location

Airport:

Trip Planner

Search our weather history database for the weather conditions in past years. The results will help you decide how hot, cold, wet, or windy it might be!

Date:

Astronomy

Sep. 05, 2013 Rise Set
Actual Time 6:01 AM MST 6:42 PM MST
Civil Twilight 5:36 AM MST 7:07 PM MST
Nautical Twilight 5:07 AM MST 7:36 PM MST
Astronomical Twilight 4:37 AM MST 8:06 PM MST
Moon 6:12 AM MST (9/5) 6:41 PM MST (9/5)
Length of Visible Light 13h 30m
Length of Day
12h 40m
New Moon, 0% of the Moon is Illuminated
Sep 5
New Moon
Sep 12
First Quarter
Sep 19
Full
Sep 26
Last Quarter
Oct 4
New

Hourly Weather History & Observations

Time (MST) Temp. Heat Index Dew Point Humidity Pressure Visibility Wind Dir Wind Speed Gust Speed Precip Events Conditions
12:53 AM 81.0 °F - 50.0 °F 34% 29.84 in 10.0 mi SE 9.2 mph - N/A   Clear
1:53 AM 77.0 °F - 55.9 °F 48% 29.83 in 10.0 mi Calm Calm - N/A   Clear
2:53 AM 75.9 °F - 55.9 °F 50% 29.83 in 10.0 mi WSW 6.9 mph - N/A   Clear
3:53 AM 77.0 °F - 55.9 °F 48% 29.82 in 10.0 mi SE 5.8 mph - N/A   Clear
4:53 AM 78.1 °F - 55.9 °F 46% 29.83 in 10.0 mi South 10.4 mph - N/A   Clear
5:53 AM 75.9 °F - 55.9 °F 50% 29.84 in 10.0 mi SSE 10.4 mph - N/A   Clear
6:53 AM 78.1 °F - 55.9 °F 46% 29.86 in 10.0 mi SSE 10.4 mph - N/A   Clear
7:53 AM 82.9 °F 82.1 °F 55.9 °F 39% 29.87 in 10.0 mi SSW 4.6 mph - N/A   Clear
8:53 AM 91.9 °F - 50.0 °F 24% 29.87 in 10.0 mi SE 9.2 mph - N/A   Clear
9:53 AM 97.0 °F - 48.0 °F 19% 29.87 in 10.0 mi ESE 12.7 mph - N/A   Clear
10:53 AM 100.0 °F - 46.9 °F 16% 29.85 in 10.0 mi ESE 16.1 mph 23.0 mph N/A   Clear
11:53 AM 102.0 °F - 44.1 °F 14% 29.84 in 10.0 mi SSE 17.3 mph 25.3 mph N/A   Partly Cloudy
12:53 PM 102.9 °F - 43.0 °F 13% 29.83 in 10.0 mi ESE 10.4 mph 28.8 mph N/A   Clear
1:53 PM 102.0 °F - 44.1 °F 14% 29.80 in 10.0 mi SE 11.5 mph 28.8 mph N/A   Scattered Clouds
2:53 PM 100.9 °F - 43.0 °F 14% 29.78 in 10.0 mi SE 5.8 mph - N/A   Scattered Clouds
3:53 PM 102.9 °F - 42.1 °F 13% 29.76 in 10.0 mi SE 9.2 mph - N/A   Partly Cloudy
4:53 PM 100.0 °F - 46.9 °F 16% 29.76 in 10.0 mi ESE 15.0 mph 24.2 mph N/A   Partly Cloudy
5:53 PM 98.1 °F - 45.0 °F 16% 29.77 in 10.0 mi ESE 13.8 mph 23.0 mph N/A   Clear
6:53 PM 97.0 °F - 46.0 °F 18% 29.78 in 10.0 mi ESE 11.5 mph - N/A   Clear
7:53 PM 96.1 °F - 46.0 °F 18% 29.79 in 10.0 mi East 6.9 mph - N/A   Clear
8:53 PM 93.9 °F - 46.0 °F 19% 29.81 in 10.0 mi ESE 6.9 mph - N/A   Partly Cloudy
9:53 PM 91.9 °F - 48.9 °F 23% 29.82 in 10.0 mi Variable 3.5 mph - N/A   Clear
10:53 PM 89.1 °F - 50.0 °F 26% 29.83 in 10.0 mi Calm Calm - N/A   Clear
11:53 PM 86.0 °F 84.2 °F 54.0 °F 33% 29.83 in 10.0 mi SE 5.8 mph - N/A   Clear